Find Local Weather

World > North America > United States > Kansas

Lake Wabaunsee, Kansas Regional Weather

Lat: 38.87N, Lon: 96.2W
Wx Zone: KSZ038
Feedback
Expires:201809191700;;888029
ASUS43 KEAX 191610
RWREAX

WEATHER ROUNDUP FOR EASTERN KANSAS AND NORTHWEST MISSOURI
NATIONAL WEATHER SERVICE KANSAS CITY/PLEASANT HILL MO
1100 AM CDT WED SEP 19 2018


IAZ060-094-KSZ022-034>040-054-083-096-NEZ052-066-093-191700- 
...KANSAS...SOUTHEAST NEBRASKA AND IOWA...
  
CITY           SKY/WX    TMP DP  RH WIND       PRES   REMARKS
TOPEKA         CLOUDY    86  71  60 SW9       29.93R HX  91           
MANHATTAN      FAIR      88  71  57 S9        29.90R HX  94           
EMPORIA        FAIR      85  71  63 S8        29.95R HX  90           
CHANUTE        FAIR      86  74  67 S14G21    29.98R HX  94           
WICHITA        FAIR      87  70  56 S16       29.93R HX  92           
OMAHA          PTSUNNY   73  68  84 E10       29.92R                  
LINCOLN        FAIR      80  70  71 VRB6      29.89S                  
FALLS CITY     FAIR      87  70  56 SW10      29.90S HX  92           
LAMONI         FAIR      77  72  84 SE7       29.96R                  
DES MOINES     CLOUDY    69  68  96 E6        29.97R                  

$$

  

SKY/WX - Weather  TMP - Temperature  DP - Dew Point  RH - Relative Humidity
WIND - Wind Direction/Speed PRES - Barometric Pressure